Tracking 19634 objects as of 22-May-2019
HD Live streaming from Space Station
objects crossing your sky now

THORAD AGENA D DEB

Track THORAD AGENA D DEB now!
10-day predictions


NORAD ID: 5165
Int'l Code: 1970-025JY
Perigee: 576.1 km
Apogee: 596.0 km
Inclination: 99.7 °
Period: 96.2 minutes
Semi major axis: 6957 km
RCS: 0.0499 m2 (small)
Launch date: April 8, 1970
Source: United States (US)
Launch site: AIR FORCE WESTERN TEST RANGE (AFWTR)

Note: This is SATELLITE DEBRIS
aabbcc
Your satellite tracking list
Your tracking list is empty




NASA's NSSDC Master Catalog

Two Line Element Set (TLE):
1  5165U 70025JY  19142.17827103  .00002978  00000-0  27167-3 0  9999
2  5165  99.7013  38.9565 0014309  50.5937 309.6542 14.96124189532206
Source of the keplerian elements: AFSPC